www.pogodaiklimat.ru

Погода и климат >> Архив погоды >> Финляндия >> Варкаус


ПОГОДА в Варкаусе

  • Прогноз погоды в Варкаусе
  • Монитор погоды в Варкаусе

АРХИВ ПОГОДЫ в Варкаусе

Время (UTC), дата Ветер
(напр.,м/с)
 
Видим.   Явления Облачность Т
(С)
Тd
(С)
f
(%)
Тe
(С)
Тes
(С)
Комфортность P
(гПа)
Po
(гПа)
Тmin
(С)
Tmax
(С)
R
(мм)
R24
(мм)
S
(см)
00 9.09 В 1 10 км дождь 10/10 1500 м
[]
+13.3 +12.8 97 +13 +13 1027.8 1017.5
03 9.09 СВ 3 30 км слаб. дождь 10/10 1500 м
[]
+12.4 +11.4 94 +11 +11 1026.9 1016.6
06 9.09 В 3 50 км 10/10 1500 м
[]
+12.8 +11.7 93 +11 +11 1026.0 1015.7 +12.2 +14.7 6
09 9.09 В 3 40 км ясно +15.3 +12.5 83 +15 +19 1025.0 1014.8
12 9.09 В 3 50 км 6/6 300 м
[]
+16.9 +13.4 80 +17 +18 1024.4 1014.3
15 9.09 В 3 40 км слаб. дождь 10/10 300 м
[]
+16.0 +13.5 85 +16 +16 1023.4 1013.3
18 9.09 В 3 35 км слаб. ливневой дождь 10/10 200 м
[]
+14.4 +13.6 95 +13 +13 1023.8 1013.6 +12.8 +17.3 2
21 9.09 ЮВ 2 8000 м дымка 10/10 100 м
[]
+13.9 +13.4 97 +13 +13 1023.7 1013.4
00 10.09 ЮВ 2 22 км 10/10 100 м
[]
+14.2 +13.6 96 +14 +14 1023.6 1013.4
03 10.09 ЮВ 1 7000 м дымка 10/10 100 м
[]
+13.9 +13.6 98 +14 +14 1023.2 1013.0
06 10.09 В 2 700 м туман ?/? +13.8 +13.7 99 +13 +13 1023.2 1013.0 +13.5 +14.4 0.4
09 10.09 ЮВ 2 19 км в посл. час дождь 10/10 100 м
[]
+15.2 +14.3 94 +15 +15 1022.9 1012.8
12 10.09 В 2 40 км 5/5 300 м
[]
+18.0 +15.2 84 +19 +21 1022.4 1012.3
15 10.09 ЮВ 2 30 км ясно +19.4 +16.8 85 +22 +23 комфорт 1021.4 1011.3
18 10.09 ЮВ 1 17 км 4/4
[]
+17.1 +16.2 94 +18 +18 1021.2 1011.1 +13.8 +19.6
21 10.09 ЮВ 2 19 км ясно +16.8 +15.4 91 +17 +17 1020.8 1010.7
00 11.09 Ю 2 18 км ясно +16.7 +15.0 90 +17 +17 1019.9 1009.8
03 11.09 ЮВ 2 16 км 4/4 2000 м
[]
+15.8 +14.6 93 +16 +16 1018.6 1008.5
06 11.09 ЮВ 2 23 км 9/9
[]
+16.8 +14.8 88 +17 +17 1017.5 1007.4 +15.7 +17.1
09 11.09 Ю 3 30 км ясно +18.9 +14.7 77 +20 +25 1016.0 1006.1
12 11.09 Ю 5 50 км 6/6 1000 м
[]
+19.6 +10.7 56 +21 +22 комфорт 1014.7 1004.8
15 11.09 Ю 5 40 км слаб. ливневой дождь 10/10 600 м
[]
+15.7 +10.6 72 +15 +15 1014.3 1004.3
18 11.09 Ю 5 30 км слаб. ливневой дождь 10/10 200 м
[]
+14.5 +13.2 92 +13 +13 1012.4 1002.3 +14.3 +20.7
21 11.09 Ю 4 16 км слаб. дождь 10/10 300 м
[]
+14.7 +13.7 94 +13 +13 1011.0 1000.9
00 12.09 Ю 4 30 км 10/10 300 м
[]
+14.5 +13.6 94 +13 +13 1011.0 1000.9
03 12.09 ЮЗ 4 14 км 3/3 300 м
[]
+13.8 +12.1 89 +12 +12 1011.7 1001.5
06 12.09 Ю 4 40 км 10/10 300 м
[]
+14.3 +12.4 88 +13 +13 1011.5 1001.4 +12.9 +15.1 4
09 12.09 Ю 4 12 км слаб. дождь 10/10 300 м
[]
+14.6 +13.3 92 +13 +13 1010.1 1000.0
12 12.09 Ю 4 10 км дождь 10/10 300 м
[]
+14.1 +13.2 94 +13 +13 1008.8 998.7
15 12.09 Ю 4 40 км 6/6 300 м
[]
+14.5 +13.4 93 +13 +13 1007.5 997.4
18 12.09 ЮЗ 5 6000 м слаб. ливневой дождь 9/9 100 м
[]
+14.1 +13.1 94 +12 +12 1007.6 997.5 +13.9 +14.9 8
21 12.09 ЮЗ 3 50 км в посл. час дождь 8/6 600 м
[]
+13.3 +12.1 92 +12 +12 1008.1 998.0
00 13.09 ЮЗ 4 30 км ясно +11.7 +11.1 96 +9 +9 1007.8 997.6
03 13.09 Ю 3 30 км 9/9 200 м
[]
+12.4 +11.7 95 +11 +11 1006.3 996.2
06 13.09 ЮЗ 3 25 км 9/9 200 м
[]
+13.2 +12.0 92 +12 +12 1004.9 994.9 +10.8 +14.1 0.3
09 13.09 З 3 50 км 8/8 200 м
[]
+12.1 +10.4 89 +10 +11 1005.4 995.3
12 13.09 З 3 50 км 6/6 600 м
[]
+14.5 +8.2 66 +14 +15 1005.1 995.1
15 13.09 З 4 50 км ясно +13.7 +6.0 60 +12 +13 1005.1 995.0
18 13.09 З 2 50 км ясно +9.8 +6.3 79 +8 +8 1005.8 995.6 +9.3 +15.1 5
21 13.09 З 4 50 км ясно +8.5 +5.5 81 +5 +5 1005.6 995.4
00 14.09 З 5 50 км 8/8 600 м
[]
+9.0 +6.2 83 +6 +6 1006.6 996.4
03 14.09 З 3 50 км 3/3 300 м
[]
+8.2 +6.8 91 +5 +5 1007.3 997.1
06 14.09 З 5 21 км слаб. ливневой дождь 9/8 300 м
[]
+8.3 +6.2 87 +5 +5 1008.1 997.9 +7.7 +10.0
09 14.09 З 4 50 км в посл. час морось 5/4 600 м
[]
+10.2 +5.8 74 +8 +9 1009.4 999.2
12 14.09 З 4 30 км слаб. ливневой дождь 6/6 600 м
[]
+10.6 +8.0 84 +8 +9 1010.2 1000.0
15 14.09 З 1 50 км в посл. час дождь 9/9 2000 м
[]
+9.0 +6.1 82 +8 +9 1011.0 1000.8
18 14.09 З 2 50 км 3/3 1000 м
[]
+7.6 +5.2 85 +6 +6 1011.4 1001.0 +7.6 +11.6 3
21 14.09 З 2 50 км ясно +5.9 +4.7 92 +3 +3 1011.2 1000.8
00 15.09 ЮЗ 3 22 км ясно +4.9 +4.5 97 +1 +1 1010.2 999.8
03 15.09 Ю 2 40 км 1/1 100 м
[]
+5.5 +5.5 100 +3 +3 1007.0 996.6
06 15.09 ЮВ 3 50 км 6/1 100 м
[]
+7.0 +6.1 94 +4 +5 1002.8 992.5 +4.2 +7.7
09 15.09 ЮВ 3 13 км слаб. дождь 10/10 300 м
[]
+8.5 +7.4 93 +6 +6 997.1 986.9
12 15.09 ЮВ 4 21 км дождь 10/10 200 м
[]
+8.8 +8.2 96 +6 +6 990.3 980.2
15 15.09 ЮВ 3 4800 м сильн. морось 10/10 100 м
[]
+9.0 +8.7 98 +6 +6 984.9 974.9
18 15.09 ЮЗ 1 5000 м дождь 10/10 100 м
[]
+9.2 +9.2 100 +8 +8 982.7 972.7 +7.0 +9.3 10
21 15.09 З 2 1300 м осадки 10/10 300 м
[]
+8.7 +8.5 99 +7 +7 982.3 972.3

 

Местоположение метеостанции Варкаус (Финляндия): широта 62.32 долгота 27.91 высота над уровнем моря 83 м.

В архиве по умолчанию представлена погода в Варкаусе за последнюю неделю. Архивные данные за месяц целиком и за предыдущие месяцы, начиная с января 2011 года, Вы можете получить, выбрав интересующий диапазон дат из раскрывающегося списка и нажав кнопку "Ввод!".


*Определитесь, кто Вы:
робот инопланетянин человек

Внимание! Время в таблицах - всемирное. Для получения местного времени необходимо прибавить поправку, которая равна 1 ч.

Смотрите также архив погоды в соседних городах и на ближайших метеорологических станциях:

Погода в Рантасалми Руккаслю (Финляндия) (45 км)
Погода в Юве (Финляндия) (48 км)
Погода в Куопио Ритониеми (Финляндия) (53 км)
Погода в Куопио Савилахти (Финляндия) (65 км)
Погода в Савонлинне (Финляндия) (67 км)
Погода в Аэропорту Куопио (Финляндия) (77 км)
Погода в Миккели (Финляндия) (79 км)
Погода в Пуумале (Финляндия) (90 км)
Погода в Лаукансаари (Финляндия) (94 км)
Погода в Липери Туискаванлуото (Финляндия) (94 км)

Пояснения к столбцам:

Ветер - указаны скорость ветра в м/с - средняя за 10 мин, порывы в срок и между сроками (в фигурных скобках) и направление, откуда дует ветер: С - северный, СВ - северо-восточный, В - восточный, ЮВ - юго-восточный, Ю - южный, ЮЗ - юго-западный, З - западный, СЗ - северо-западный.
Видимость - горизонтальная дальность видимости в метрах или километрах. При видимости от 1 до 10 км при отсутствии осадков обычно наблюдается дымка, при ухудшении видимости до 1 км и менее - туман. В сухую погоду видимость может ухудшаться дымом, пылью или мглою.
Явления - указаны атмосферные явления, наблюдавшиеся в срок или в последний час перед сроком; фигурными скобками обозначены явления, наблюдавшиеся между сроками (за 1-3 часа до срока); квадратными скобками обозначены град или гололедные отложения с указанием их диаметра в мм.
Облачность - указаны через наклонную черту общая и нижняя облачность в баллах и высота нижней границы облаков в метрах; квадратными скобками обозначены формы облаков: Ci - перистые, Cs - перисто-слоистые, Cc - перисто-кучевые, Ac - высококучевые, As - высокослоистые, Sc - слоисто-кучевые, Ns - слоисто-дождевые, Cu - кучевые, Cb - кучево-дождевые. Подробнее классификацию облаков см. в Атласе облаков (PDF).
T - Температура воздуха - температура, измеренная на высоте 2 м над землей.
Td - Температура точки росы - температура, при понижении до которой содержащийся в воздухе водяной пар достигнет насыщения.
f - Относительная влажность воздуха - влажноcть воздуха, измеренная на высоте 2 м над землей.
Te - Эффективная температура - температура, которую ощущает одетый по сезону человек в тени. Характеристика душности погоды. При расчете учитывается влияние влажности воздуха и скорости ветра на теплоощущения человека.
Tes - Эффективная температура на солнце - температура, которую ощущает человек, с поправкой на солнечный нагрев. Характеристика знойности погоды. Зависит от высоты солнца над горизонтом, облачности и скорости ветра. Ночью, в пасмурную погоду, а также при ветре 12 м/с и более поправка равна нулю.
P - Атмосферное давление - приведенное к уровню моря атмосферное давление.
Po - Атмосферное давление - измеренное на уровне метеостанции атмосферное давление.
Tmin - Минимальная температура - минимум температуры воздуха на высоте 2 м над землей.
Tmax - Максимальная температура - максимум температуры воздуха на высоте 2 м над землей.
R - Количество осадков - Количество выпавших осадков за период времени, мм. При наведении курсора мыши на число - период времени, за который выпало указанное количество осадков.
R24 - Количество осадков - Количество выпавших осадков за 24 часа, мм.
S - Снежный покров - Высота снежного покрова, см. При наведении курсора мыши на число - состояние снежного покрова и степень покрытия местности в баллах.